Location: Unspecified
(0.0000°N, 0.0000°E)
Time: 11:25:44
(UTC+02:00)

OPAL - Visible Passes

Search period start: 23 August 2014 00:00
Search period end: 02 September 2014 00:00
Orbit: 744 x 796 km, 100.2° (Epoch: 22 August)

Date Brightness Start Highest point End Pass type
(mag) Time Alt. Az. Time Alt. Az. Time Alt. Az.
23 Aug 9.2 06:07:40 21° N 06:07:40 21° N 06:09:15 10° N visible
24 Aug 9.7 05:31:42 18° NNE 05:31:42 18° NNE 05:33:22 10° NNE visible
25 Aug 9.1 06:27:58 10° S 06:35:58 19° NW 06:37:27 10° NNW visible
26 Aug 8.8 05:52:42 10° SSE 05:59:52 31° N 06:02:30 10° N visible
27 Aug 9.8 05:23:38 20° ENE 05:23:38 20° ENE 05:26:14 10° NNE visible
27 Aug 9.1 06:57:22 10° SSW 07:03:53 14° WNW 07:04:52 10° NW visible
28 Aug 7.8 06:21:06 10° S 06:27:20 44° NW 06:30:55 10° NNW visible
29 Aug 8.4 05:46:08 10° SSE 05:50:53 46° ENE 05:55:40 10° N visible
30 Aug 10.0 05:12:42 10° ESE 05:15:48 17° ENE 05:18:55 10° NE visible
30 Aug 8.2 06:50:12 10° SSW 06:54:25 28° WSW 06:58:39 10° NW visible
31 Aug 7.3 06:14:19 10° S 06:19:18 80° WSW 06:24:19 10° NNW visible
01 Sep 8.9 05:39:40 10° SE 05:44:12 36° ENE 05:48:45 10° N visible
01 Sep 9.1 07:20:37 10° SW 07:22:49 13° WSW 07:25:01 10° WNW visible
